Zurück zum Katalog

ONEWEB-0388

AktivKommunikationPO
NORAD 49314·PAYLOAD·🇬🇧 United Kingdom

Gestartet Oct 14, 2021 von Vostochny Cosmodrome

Loading…

Nächste Überflüge (nächste 24 Stunden)

TLE

AktuellSource: CelesTrak SupGP

Epoche: Sep 14, 2026, 16:02 UTC

1 49314C 21090AM  26257.66819861 -.00002269  00000+0 -56743-2 0  2574
2 49314  87.9102 287.1423 0002066  96.5300  17.6028 13.19728206    18

Verfolge ONEWEB-0388 in Echtzeit mit AllMySat

Download on the App Store